Stations météo

réclame
Mon MeteoGroup
Besancon, France (7288): Température de l'air & dewpoint: 18.09.2018 11:00:00 - 24.09.2018 11:00:00 (CEST)Besancon, France (7288): Température de l'air 5cm: 18.09.2018 11:00:00 - 24.09.2018 11:00:00 (CEST)Besancon, France (7288): Température de l'air -20cm & Température de l'air -100cm: 18.09.2018 11:00:00 - 24.09.2018 11:00:00 (CEST)Besancon, France (7288): Vitesse du vent & gusts: 18.09.2018 11:00:00 - 24.09.2018 11:00:00 (CEST)Besancon, France (7288): Direction du vent: 18.09.2018 11:00:00 - 24.09.2018 11:00:00 (CEST)Besancon, France (7288): reduced air pressure: 18.09.2018 11:00:00 - 24.09.2018 11:00:00 (CEST)Besancon, France (7288): Ensoleillement: 18.09.2018 11:00:00 - 24.09.2018 11:00:00 (CEST)Besancon, France (7288): Quantités de précipitations: 18.09.2018 11:00:00 - 24.09.2018 11:00:00 (CEST)
Date & Time tt [°C] td [°C] tt 5cm [°C] tt -20cm [°C] tt -100cm [°C] ff [km/h] ff [knt] fx [km/h] fx [knt] dd ppp [hPa] sd [min] rr [mm]
24.09.2018 11:00:00 11,6 7,3 14,1 17,7 18,7 13 7 - - NNE 1032,5 - -
24.09.2018 10:00:00 10,4 6,9 9,3 17,8 18,7 10 5 23 13 NNE 1032,2 23 0,0
24.09.2018 09:00:00 9,0 7,0 7,4 18,0 18,7 7 4 18 10 NNE 1032,0 1 0,0
24.09.2018 08:00:00 8,2 6,3 7,0 18,1 18,7 7 4 24 13 NNE 1031,3 0 0,0
24.09.2018 07:00:00 9,1 7,0 8,2 18,2 18,7 13 7 30 16 N 1030,4 0 0,2
24.09.2018 06:00:00 9,5 7,6 8,4 18,3 18,7 11 6 19 10 N 1029,7 0 0,0
24.09.2018 05:00:00 9,9 8,2 9,1 18,5 18,7 10 5 29 15 N 1029,0 0 0,0
24.09.2018 04:00:00 10,8 8,6 9,8 18,6 18,7 9 5 18 10 N 1028,0 0 0,0
24.09.2018 03:00:00 11,2 9,1 10,0 18,7 18,7 6 3 22 12 N 1027,6 0 0,0
24.09.2018 02:00:00 11,6 9,2 10,4 18,7 18,7 5 3 12 6 N 1027,1 0 0,0
24.09.2018 01:00:00 11,9 9,6 10,9 18,8 18,7 5 3 15 8 NNW 1026,0 0 0,0
24.09.2018 00:00:00 12,2 9,6 11,2 18,9 18,7 4 2 12 7 NNW 1025,3 0 0,0
23.09.2018 23:00:00 12,4 10,1 11,5 19,0 18,7 6 3 19 11 N 1024,4 0 0,0
23.09.2018 22:00:00 13,2 11,1 12,3 19,0 18,7 11 6 29 16 N 1022,2 0 2,1
23.09.2018 21:00:00 14,1 13,1 13,6 19,0 18,7 13 7 68 37 NNW 1019,6 0 6,7
23.09.2018 20:00:00 23,8 15,3 20,3 19,0 18,7 21 11 46 25 WSW 1014,3 0 0,0
23.09.2018 19:00:00 23,6 15,9 20,1 18,9 18,7 16 8 40 22 SW 1013,7 0 0,0
23.09.2018 18:00:00 24,1 15,8 23,8 18,8 18,7 16 9 40 22 SW 1013,9 6 0,0
23.09.2018 17:00:00 24,0 15,2 23,2 18,8 18,7 17 9 43 23 SW 1015,0 11 0,0
23.09.2018 16:00:00 23,1 14,6 22,9 18,7 18,7 14 8 45 24 SW 1015,7 0 0,0
23.09.2018 15:00:00 22,8 15,1 22,4 18,6 18,7 17 9 41 22 SW 1016,3 4 0,0
23.09.2018 14:00:00 21,3 16,0 19,4 18,6 18,7 15 8 42 23 SW 1017,2 1 0,0
23.09.2018 13:00:00 20,7 15,9 17,9 18,6 18,8 15 8 36 19 SW 1018,0 1 0,2
23.09.2018 12:00:00 19,5 15,4 17,1 18,6 18,8 16 9 36 19 SW 1018,8 0 0,0
23.09.2018 11:00:00 17,4 15,7 16,5 18,6 18,8 12 7 42 23 SSW 1019,4 0 0,4
23.09.2018 10:00:00 17,7 15,1 16,1 18,6 18,8 16 8 46 25 SW 1019,6 0 0,2
23.09.2018 09:00:00 19,9 12,9 19,2 18,6 18,8 19 10 41 22 SW 1018,9 0 0,0
23.09.2018 08:00:00 19,8 12,3 19,1 18,7 18,8 14 8 35 19 SSW 1018,8 0 0,0
23.09.2018 07:00:00 19,6 12,4 18,4 18,7 18,8 13 7 32 17 SW 1018,9 0 0,0
23.09.2018 06:00:00 19,0 12,3 18,5 18,7 18,8 8 5 27 15 SSW 1019,2 0 0,0
23.09.2018 05:00:00 19,9 10,0 19,4 18,8 18,8 14 8 38 21 SW 1019,6 0 0,0
23.09.2018 04:00:00 20,1 7,8 19,2 18,8 18,8 8 5 32 17 SSW 1019,8 0 0,0
23.09.2018 03:00:00 19,8 6,9 18,8 18,9 18,8 16 9 38 20 SW 1020,2 0 0,0
23.09.2018 02:00:00 19,9 5,5 19,3 18,9 18,8 16 8 36 19 SW 1020,7 0 0,0
23.09.2018 01:00:00 20,0 4,9 17,3 19,0 18,8 12 6 26 14 SW 1020,2 0 0,0
23.09.2018 00:00:00 17,8 6,6 16,4 19,0 18,8 4 2 10 5 SSW 1020,5 0 0,0
22.09.2018 23:00:00 17,4 7,7 16,3 19,0 18,8 3 2 14 8 SW 1021,2 0 0,0
22.09.2018 22:00:00 16,9 8,1 16,2 19,1 18,8 5 3 16 9 SSW 1021,1 0 0,0
22.09.2018 21:00:00 16,8 7,7 15,9 19,0 18,8 4 2 9 5 SSW 1021,2 0 0,0
22.09.2018 20:00:00 17,2 6,4 16,4 19,0 18,8 6 3 13 7 SW 1021,0 6 0,0
22.09.2018 19:00:00 17,8 5,7 17,8 18,9 18,8 6 3 14 8 WSW 1020,9 26 0,0
22.09.2018 18:00:00 18,4 5,6 19,3 18,8 18,8 5 3 16 8 WSW 1021,1 4 0,0
22.09.2018 17:00:00 19,3 5,0 22,2 18,7 18,8 8 4 16 9 WSW 1021,8 39 0,0
22.09.2018 16:00:00 18,9 5,7 23,0 18,5 18,8 4 2 15 8 NW 1022,2 34 0,0
22.09.2018 15:00:00 18,5 6,0 26,2 18,3 18,8 4 2 16 8 WNW 1022,4 54 0,0
22.09.2018 14:00:00 17,5 6,1 25,6 18,2 18,8 6 3 13 7 NW 1023,4 49 0,0
22.09.2018 13:00:00 16,9 6,7 26,4 18,1 18,8 4 2 11 6 WNW 1023,9 60 0,0
22.09.2018 12:00:00 15,6 7,6 16,6 18,1 18,8 4 2 8 5 W 1024,8 55 0,0
22.09.2018 11:00:00 13,4 9,4 14,1 18,2 18,8 0 0 6 3 N 1025,4 19 0,0
22.09.2018 10:00:00 11,9 10,8 11,8 18,2 18,8 3 1 5 3 W 1025,5 16 0,0
22.09.2018 09:00:00 10,9 10,9 7,7 18,4 18,9 0 0 3 2 N 1025,5 21 0,0
22.09.2018 08:00:00 9,7 9,6 6,3 18,6 18,9 0 0 3 2 N 1025,9 0 0,0
22.09.2018 07:00:00 10,2 10,0 7,9 18,7 18,9 2 1 3 1 NNE 1025,1 0 0,0
22.09.2018 06:00:00 - - - - - - - - - - - - -
22.09.2018 05:00:00 - - - - - - - - - - - - -
22.09.2018 04:00:00 - - - - - - - - - - - - -
22.09.2018 03:00:00 11,1 10,5 9,8 19,1 18,8 0 0 8 4 N 1025,2 0 0,0
22.09.2018 02:00:00 11,1 10,5 10,1 19,3 18,9 2 1 6 4 WSW 1025,1 0 0,0
22.09.2018 01:00:00 10,8 10,3 8,4 19,4 18,8 2 1 6 4 SSW 1024,8 0 0,0
22.09.2018 00:00:00 11,0 10,5 8,8 19,5 18,9 2 1 8 4 SSW 1024,3 0 0,0
21.09.2018 23:00:00 11,1 10,5 9,8 19,7 18,8 0 0 7 4 N 1024,2 0 0,0
21.09.2018 22:00:00 11,3 10,7 9,5 19,8 18,8 0 0 5 3 N 1023,6 0 0,0
21.09.2018 21:00:00 11,2 10,4 9,8 19,9 18,8 0 0 5 3 N 1023,0 0 0,0
21.09.2018 20:00:00 11,8 10,7 10,7 20,0 18,8 4 2 13 7 S 1021,8 0 0,0
21.09.2018 19:00:00 12,4 11,6 11,8 20,0 18,8 3 2 14 8 SSW 1020,9 0 3,7
21.09.2018 18:00:00 12,7 11,1 12,1 20,0 18,8 13 7 37 20 NW 1020,2 0 5,2
21.09.2018 17:00:00 15,8 13,3 15,6 19,9 18,8 14 8 42 23 WNW 1017,7 0 0,0
21.09.2018 16:00:00 22,5 12,1 23,0 19,9 18,8 11 6 36 20 WSW 1014,5 0 0,0
21.09.2018 15:00:00 22,7 11,1 23,7 19,8 18,8 13 7 42 23 WSW 1014,1 0 0,0
21.09.2018 14:00:00 22,9 13,4 18,2 19,8 18,8 11 6 33 18 WSW 1014,4 0 0,0
21.09.2018 13:00:00 23,1 13,6 23,5 19,7 18,8 16 9 43 23 SW 1013,9 15 0,0
21.09.2018 12:00:00 23,3 14,3 25,1 19,7 18,8 15 8 36 19 SW 1013,9 13 0,0
21.09.2018 11:00:00 23,3 13,5 24,8 19,7 18,8 12 7 35 19 WSW 1014,0 33 0,0
21.09.2018 10:00:00 21,1 14,0 19,0 19,8 18,8 10 5 23 13 WSW 1014,2 47 0,0
21.09.2018 09:00:00 18,8 13,2 14,8 19,9 18,8 4 2 10 5 SW 1013,6 12 0,0
21.09.2018 08:00:00 16,2 12,4 13,2 20,0 18,8 0 0 6 4 N 1013,6 16 0,0
21.09.2018 07:00:00 17,5 12,4 13,8 20,1 18,8 4 2 10 5 SW 1013,2 0 0,0
21.09.2018 06:00:00 17,8 12,3 12,3 20,3 18,8 3 2 9 5 SW 1013,3 0 0,0
21.09.2018 05:00:00 16,2 12,9 12,1 20,4 18,8 0 0 3 2 N 1013,7 0 0,0
21.09.2018 04:00:00 16,1 12,8 12,3 20,5 18,8 0 0 3 1 N 1014,1 0 0,0
21.09.2018 03:00:00 16,2 13,3 11,6 20,6 18,8 0 0 5 3 N 1014,4 0 0,0
21.09.2018 02:00:00 15,6 13,1 11,4 20,7 18,8 0 0 5 3 N 1014,7 0 0,0
21.09.2018 01:00:00 16,3 13,2 11,8 20,8 18,8 0 0 7 4 N 1015,1 0 0,0
21.09.2018 00:00:00 16,3 13,2 11,5 20,9 18,8 0 0 4 2 N 1015,5 0 0,0
20.09.2018 23:00:00 17,1 13,4 12,3 21,0 18,8 0 0 4 2 N 1015,8 0 0,0
20.09.2018 22:00:00 18,8 13,4 13,3 21,0 18,8 0 0 6 3 N 1016,0 0 0,0
20.09.2018 21:00:00 21,1 13,3 15,3 21,0 18,8 0 0 4 2 N 1016,0 0 0,0
20.09.2018 20:00:00 23,4 13,3 17,3 20,9 18,8 0 0 14 7 N 1015,6 15 0,0
20.09.2018 19:00:00 27,3 13,3 26,7 20,8 18,8 5 3 11 6 W 1015,3 56 0,0
20.09.2018 18:00:00 28,5 14,0 32,5 20,6 18,8 5 3 18 10 NW 1015,4 60 0,0
20.09.2018 17:00:00 28,7 13,4 34,0 20,4 18,8 7 4 17 9 WNW 1015,8 60 0,0
20.09.2018 16:00:00 28,2 14,1 37,1 20,2 18,8 7 4 16 9 NNW 1016,6 60 0,0
20.09.2018 15:00:00 28,2 14,1 37,0 20,0 18,8 4 2 17 9 SSW 1017,3 60 0,0
20.09.2018 14:00:00 27,5 14,5 37,2 19,8 18,8 4 2 13 7 NNW 1018,3 60 0,0
20.09.2018 13:00:00 26,2 14,6 36,1 19,7 18,8 5 3 15 8 WNW 1019,2 60 0,0
20.09.2018 12:00:00 25,0 13,9 33,2 19,7 18,8 5 3 13 7 W 1019,9 60 0,0
20.09.2018 11:00:00 23,6 14,0 29,8 19,7 18,8 3 2 9 5 W 1020,4 60 0,0
20.09.2018 10:00:00 20,2 14,3 16,0 19,8 18,8 0 0 6 3 N 1020,7 60 0,0
20.09.2018 09:00:00 16,2 13,7 12,0 19,9 18,8 2 1 5 3 N 1021,2 30 0,0
20.09.2018 08:00:00 13,9 12,8 10,1 20,0 18,8 3 2 6 3 NE 1021,4 0 0,0
20.09.2018 07:00:00 14,0 12,4 10,4 20,2 18,8 0 0 2 1 N 1021,3 0 0,0
20.09.2018 06:00:00 14,7 13,1 11,0 20,3 18,8 0 0 4 2 N 1021,0 0 0,0
20.09.2018 05:00:00 15,0 13,2 11,0 20,4 18,8 3 2 5 3 NE 1020,9 0 0,0
20.09.2018 04:00:00 15,2 13,0 11,8 20,5 18,8 2 1 4 2 NNE 1021,0 0 0,0
20.09.2018 03:00:00 15,8 12,9 12,2 20,6 18,8 0 0 5 3 N 1021,1 0 0,0
20.09.2018 02:00:00 16,6 13,1 13,0 20,7 18,8 0 0 5 3 N 1021,0 0 0,0
20.09.2018 01:00:00 17,5 13,2 13,7 20,8 18,8 0 0 0 0 N 1020,9 0 0,0
20.09.2018 00:00:00 17,8 13,3 14,1 20,9 18,8 0 0 4 2 N 1020,8 0 0,0
19.09.2018 23:00:00 18,9 13,5 14,9 20,9 18,8 0 0 4 2 N 1020,5 0 0,0
19.09.2018 22:00:00 20,3 13,7 15,9 20,9 18,8 2 1 5 3 NNE 1020,1 0 0,0
19.09.2018 21:00:00 21,8 13,7 16,8 20,9 18,8 2 1 4 2 NNE 1019,6 0 0,0
19.09.2018 20:00:00 24,3 12,6 18,6 20,8 18,7 2 1 5 3 WNW 1019,0 17 0,0
19.09.2018 19:00:00 28,1 13,2 27,3 20,7 18,7 2 1 10 5 W 1018,2 53 0,0
19.09.2018 18:00:00 29,0 12,8 31,9 20,5 18,7 5 3 18 10 W 1018,0 60 0,0
19.09.2018 17:00:00 29,1 12,1 34,0 20,3 18,8 8 4 17 9 WSW 1018,2 60 0,0
19.09.2018 16:00:00 29,5 12,4 35,9 20,1 18,8 6 3 18 10 SW 1018,5 60 0,0
19.09.2018 15:00:00 28,2 12,9 37,5 19,9 18,8 5 3 16 9 NNW 1018,8 60 0,0
19.09.2018 14:00:00 28,1 14,0 37,1 19,7 18,8 5 3 15 8 WSW 1019,3 60 0,0
19.09.2018 13:00:00 26,8 13,9 34,7 19,6 18,7 5 3 20 11 WSW 1019,8 60 0,0
19.09.2018 12:00:00 25,5 13,7 31,2 19,6 18,8 8 5 22 12 SW 1020,0 60 0,0
19.09.2018 11:00:00 24,1 14,2 28,5 19,5 18,7 7 4 16 8 SW 1020,3 60 0,0
19.09.2018 10:00:00 21,3 13,2 17,9 19,6 18,7 2 1 8 4 SW 1020,5 54 0,0
19.09.2018 09:00:00 17,8 13,1 16,5 19,7 18,8 0 0 4 2 N 1020,4 0 0,0
19.09.2018 08:00:00 17,2 12,7 14,2 19,7 18,8 0 0 0 0 N 1020,2 0 0,0
19.09.2018 07:00:00 17,4 12,1 14,5 19,8 18,7 0 0 4 2 N 1019,7 0 0,0
19.09.2018 06:00:00 17,2 12,5 15,6 19,9 18,8 2 1 5 3 NE 1019,3 0 0,0
19.09.2018 05:00:00 17,2 12,5 14,4 20,0 18,8 0 0 5 3 N 1019,3 0 0,0
19.09.2018 04:00:00 16,3 12,5 13,2 20,1 18,8 0 0 5 3 N 1019,2 0 0,0
19.09.2018 03:00:00 16,6 12,3 13,6 20,1 18,8 0 0 5 3 N 1018,9 0 0,0
19.09.2018 02:00:00 17,0 12,3 13,7 20,2 18,8 0 0 5 3 N 1019,1 0 0,0
19.09.2018 01:00:00 17,8 12,3 14,1 20,3 18,8 0 0 4 2 N 1018,8 0 0,0
19.09.2018 00:00:00 18,1 12,3 14,8 20,4 18,8 2 1 5 3 NNE 1018,5 0 0,0
18.09.2018 23:00:00 18,7 12,2 14,8 20,4 18,8 0 0 5 3 N 1018,2 0 0,0
18.09.2018 22:00:00 19,1 12,8 15,3 20,4 18,7 0 0 6 3 N 1018,1 0 0,0
18.09.2018 21:00:00 20,5 12,2 15,8 20,4 18,8 0 0 4 2 N 1017,4 0 0,0
18.09.2018 20:00:00 22,9 11,6 17,3 20,3 18,8 0 0 4 2 N 1016,4 0 0,0
18.09.2018 19:00:00 25,6 11,4 23,4 20,2 18,8 2 1 10 5 NW 1015,7 0 0,0
18.09.2018 18:00:00 27,7 10,4 26,9 20,0 18,8 7 4 19 11 W 1015,0 45 0,0
18.09.2018 17:00:00 29,0 12,8 32,8 19,8 18,8 6 4 19 11 WSW 1014,7 60 0,0
18.09.2018 16:00:00 28,9 13,2 35,9 19,6 18,8 6 3 21 11 W 1015,1 60 0,0
18.09.2018 15:00:00 27,8 14,1 30,2 19,4 18,8 6 3 21 11 WSW 1015,8 48 0,0
18.09.2018 14:00:00 26,5 13,9 27,8 19,2 18,7 9 5 29 15 WSW 1016,7 47 0,0
18.09.2018 13:00:00 26,4 12,8 29,5 19,1 18,8 13 7 30 16 SW 1016,9 53 0,0
18.09.2018 12:00:00 25,9 14,7 24,9 19,1 18,8 10 5 29 16 WSW 1017,4 41 0,0
18.09.2018 11:00:00 23,8 14,5 25,0 19,1 18,8 13 7 34 19 SW 1018,0 52 0,0

tt = Température de l'air
td = dewpoint
tt 5cm = Température de l'air 5cm
tt -20cm = Température de l'air -20cm
tt -100cm = Température de l'air -100cm
ff = Vitesse du vent
fx = gusts
dd = Direction du vent
ppp = reduced air pressure
sd = Ensoleillement
rr = Quantités de précipitations

stations d'obs. à proximité